Вернуться в каталог

STARLINK-5882

АктивенСвязьVLEO
NORAD 55936·PAYLOAD·🇺🇸 United States

Запущен Mar 17, 2023 с Vandenberg Space Force Base

Loading…

Ближайшие Пролёты (ближайшие 24 часа)

TLE

СвежийSource: CelesTrak SupGP

Эпоха: Sep 15, 2026, 01:54 UTC

1 55936C 23037Y   26258.07965278  .00024980  00000+0  20934-2 0  2580
2 55936  70.0010 146.7737 0002715 274.5179 171.8578 14.98319699    10

Отслеживайте STARLINK-5882 в реальном времени с AllMySat

Download on the App Store